Overview Statistics Trail Chart Weather Telemetry Raw packets
 

This is the latest recevied weather packets stored in our database for station/object SV9TNF-52. If no packets are shown the sender has not sent any weather packets the latest 10 day(s).

<< 43 44 45 46 47 48 49 >>
Time Temp. Humidity Pressure Rain* Wind** Luminosity Snow
1788367430 27.78° C 59% 1019.3 hPa 0 mm 0 m/s - -
1788367130 27.78° C 58% 1019.3 hPa 0 mm 3.13 m/s, 265° - -
1788366830 28.33° C 57% 1019.3 hPa 0 mm 1.79 m/s, 247° - -
1788366530 28.33° C 55% 1019.3 hPa 0 mm 4.47 m/s, 273° - -
1788366230 28.89° C 54% 1019.3 hPa 0 mm 1.79 m/s, 267° - -
1788365929 29.44° C 54% 1019.3 hPa 0 mm 3.13 m/s, 263° - -
1788365629 29.44° C 52% 1019.3 hPa 0 mm 1.79 m/s, 359° - -
1788365330 29.44° C 51% 1019.3 hPa 0 mm 4.47 m/s, 260° - -
1788365029 30° C 52% 1019.3 hPa 0 mm 1.34 m/s, 249° - -
1788364729 30° C 51% 1019.3 hPa 0 mm 3.13 m/s, 268° - -
1788364429 30.56° C 50% 1019.3 hPa 0 mm 1.34 m/s, 258° - -
1788364130 30.56° C 51% 1019.3 hPa 0 mm 0.89 m/s, 306° - -
1788363829 30.56° C 49% 1019.3 hPa 0 mm 3.58 m/s, 259° - -
1788363528 30.56° C 50% 1019.3 hPa 0 mm 1.79 m/s, 264° - -
1788363250 31.67° C 48% 1019.3 hPa 0 mm 3.13 m/s, 284° - -
1788362928 31.67° C 46% 1019.3 hPa 0 mm 1.79 m/s, 226° - -
1788362628 31.67° C 47% 1019.3 hPa 0 mm 1.79 m/s, 265° - -
1788362328 31.67° C 47% 1019.3 hPa 0 mm 1.79 m/s, 267° - -
1788362029 32.22° C 46% 1019.3 hPa 0 mm 1.34 m/s, 207° - -
1788361728 31.67° C 47% 1019.3 hPa 0 mm 1.79 m/s, 282° - -
1788361428 32.22° C 45% 1019.3 hPa 0 mm 2.24 m/s, 345° - -
1788361128 32.22° C 45% 1019.3 hPa 0 mm 0 m/s - -
1788360829 31.67° C 47% 1019.3 hPa 0 mm 2.68 m/s, 279° - -
1788360528 31.67° C 48% 1019.3 hPa 0 mm 0.45 m/s, 137° - -
1788360228 31.67° C 48% 1019.3 hPa 0 mm 1.34 m/s, 257° - -

* Rain latest hour (hover to see other rain measurements)
** Current wind speed in m/s (hover to see current wind gust speed)